This is the latest recevied weather packets stored in our database for station/object YO2LDK-13. If no packets are shown the sender has not sent any weather packets the latest 10 day(s).
| Time | Temp. | Humidity | Pressure | Rain* | Wind** | Luminosity | Snow |
|---|---|---|---|---|---|---|---|
| 1777739719 | 19.44° C | 34% | 1008.5 hPa | 0 mm | - | 26 W/m² | - |
| 1777739420 | 20° C | 33% | 1008.8 hPa | 0 mm | - | 28 W/m² | - |
| 1777739120 | 20° C | 33% | 1008.5 hPa | 0 mm | - | 30 W/m² | - |
| 1777738821 | 20.56° C | 32% | 1008.8 hPa | 0 mm | - | 34 W/m² | - |
| 1777738519 | 20.56° C | 32% | 1008.8 hPa | 0 mm | - | 63 W/m² | - |
| 1777738219 | 21.11° C | 31% | 1008.5 hPa | 0 mm | - | 53 W/m² | - |
| 1777737919 | 21.11° C | 31% | 1008.8 hPa | 0 mm | - | 100 W/m² | - |
| 1777737620 | 21.11° C | 30% | 1008.8 hPa | 0 mm | - | 118 W/m² | - |
| 1777737319 | 21.67° C | 30% | 1008.8 hPa | 0 mm | - | 128 W/m² | - |
| 1777737019 | 21.67° C | 31% | 1008.8 hPa | 0 mm | - | 141 W/m² | - |
| 1777736720 | 21.67° C | 31% | 1008.5 hPa | 0 mm | - | 155 W/m² | - |
| 1777736420 | 21.67° C | 30% | 1008.8 hPa | 0 mm | - | 170 W/m² | - |
| 1777736120 | 21.67° C | 30% | 1008.8 hPa | 0 mm | - | 182 W/m² | - |
| 1777735819 | 21.67° C | 30% | 1008.8 hPa | 0 mm | - | 198 W/m² | - |
| 1777735520 | 22.22° C | 30% | 1008.8 hPa | 0 mm | - | 214 W/m² | - |
| 1777735219 | 21.67° C | 30% | 1008.8 hPa | 0 mm | - | 230 W/m² | - |
| 1777734919 | 22.22° C | 30% | 1008.5 hPa | 0 mm | - | 251 W/m² | - |
| 1777734619 | 22.22° C | 30% | 1008.8 hPa | 0 mm | - | 264 W/m² | - |
| 1777734320 | 22.78° C | 30% | 1008.8 hPa | 0 mm | - | 284 W/m² | - |
| 1777734020 | 22.78° C | 30% | 1008.5 hPa | 0 mm | - | 302 W/m² | - |
| 1777733719 | 22.78° C | 30% | 1008.8 hPa | 0 mm | - | 330 W/m² | - |
| 1777733419 | 22.22° C | 30% | 1008.8 hPa | 0 mm | - | 353 W/m² | - |
| 1777733119 | 22.78° C | 29% | 1008.8 hPa | 0 mm | - | 357 W/m² | - |
| 1777732820 | 22.78° C | 28% | 1008.8 hPa | 0 mm | - | 369 W/m² | - |
| 1777732519 | 22.78° C | 27% | 1008.8 hPa | 0 mm | - | 388 W/m² | - |
* Rain latest hour (hover to see other rain measurements)
** Current wind speed in m/s (hover to see current wind gust speed)